This is the latest recevied weather packets stored in our database for station/object KC3QLX. If no packets are shown the sender has not sent any weather packets the latest 10 day(s).
| Time | Temp. | Humidity | Pressure | Rain* | Wind** | Luminosity | Snow |
|---|---|---|---|---|---|---|---|
| 1777987468 | 18.33° C | 76% | 1010.8 hPa | 0 mm | - | 455 W/m² | - |
| 1777987166 | 17.78° C | 77% | 1010.7 hPa | 0 mm | - | 251 W/m² | - |
| 1777986863 | 17.78° C | 79% | 1010.8 hPa | 0 mm | - | 122 W/m² | - |
| 1777986561 | 17.22° C | 82% | 1011 hPa | 0 mm | - | 101 W/m² | - |
| 1777986259 | 16.67° C | 83% | 1011 hPa | 0 mm | - | 112 W/m² | - |
| 1777985955 | 16.11° C | 85% | 1010.7 hPa | 0 mm | - | 134 W/m² | - |
| 1777985653 | 15° C | 90% | 1010.6 hPa | 0 mm | - | 107 W/m² | - |
| 1777985349 | 14.44° C | 98% | 1010.9 hPa | 0 mm | - | 91 W/m² | - |
| 1777985046 | 13.89° C | 99% | 1010.6 hPa | 0 mm | - | 123 W/m² | - |
| 1777984742 | 13.89° C | 99% | 1010.5 hPa | 0 mm | - | 133 W/m² | - |
| 1777984439 | 13.33° C | 99% | 1010.6 hPa | 0 mm | - | 177 W/m² | - |
| 1777984135 | 13.33° C | 99% | 1010.4 hPa | 0 mm | - | 67 W/m² | - |
| 1777983832 | 12.78° C | 99% | 1010.5 hPa | 0 mm | - | 68 W/m² | - |
| 1777983529 | 12.78° C | 99% | 1010.3 hPa | 0 mm | - | 94 W/m² | - |
| 1777983226 | 12.78° C | 99% | 1010.4 hPa | 0 mm | - | 75 W/m² | - |
| 1777982922 | 13.33° C | 99% | 1010.4 hPa | 0 mm | - | 69 W/m² | - |
| 1777982618 | 13.33° C | 99% | 1010.5 hPa | 0 mm | - | 106 W/m² | - |
| 1777982317 | 12.22° C | 99% | 1010.4 hPa | 0 mm | - | 146 W/m² | - |
| 1777982014 | 11.67° C | 99% | 1010.6 hPa | 0 mm | - | 74 W/m² | - |
| 1777981712 | 11.67° C | 99% | 1010.4 hPa | 0 mm | - | 52 W/m² | - |
| 1777981409 | 11.67° C | 99% | 1010.4 hPa | 0 mm | - | 48 W/m² | - |
| 1777981105 | 11.11° C | 99% | 1010.4 hPa | 0 mm | - | 46 W/m² | - |
| 1777980801 | 10.56° C | 99% | 1010.5 hPa | 0 mm | - | 45 W/m² | - |
| 1777980497 | 10.56° C | 99% | 1010.6 hPa | 0 mm | - | 43 W/m² | - |
| 1777980195 | 10.56° C | 99% | 1010.4 hPa | 0 mm | - | 42 W/m² | - |
* Rain latest hour (hover to see other rain measurements)
** Current wind speed in m/s (hover to see current wind gust speed)